weather.gov     
National Weather Service

Regional Weather Roundup
NWS Homepage
This page is being discontinued on March 12, 2014.
The same data is available at this site. Please update your bookmarks.
Thank you, and we apologize for the inconvenience.
Please send an email to SR-SRH.Webmaster@noaa.gov with any concerns.


Current Version
Previous Version:    01  02  03  04  05  06  07  08  09  10  11  12  13  14  15  16  17  18  19  20  21  22  23  24  25  26  27  28  
[Printable]
613
ASUS41 KLWX 160710
RWRLWX

REGIONAL WEATHER ROUNDUP
NATIONAL WEATHER SERVICE BALTIMORE MD/WASHINGTON DC
300 AM EDT TUE SEP 16 2014

Note: "FAIR" indicates few or no clouds below 12,000 feet
with no significant weather and/or obstructions to visibility.
 TC=TEMPERATURE CELSIUS

 * =Non NWS site. Station does not report precipitation (e.g. rain,
    snow, etc.), thunder, or fog.

DCZ001-MDZ009-015-VAZ040>042-051-053>054-160800-
WASHINGTON METRO

CITY           SKY/WX    TMP DP  RH WIND       PRES   REMARKS
WASHINGTON NAT CLOUDY    68  61  78 S6        30.02F
DULLES         CLOUDY    62  59  90 CALM      30.02F
ANDREWS AFB    MOCLDY    61  60  98 S7        30.01F
QUANTICO       MOCLDY    67  61  81 SW6       30.02F
COLLEGE PARK*  MOCLDY    61  61 100 CALM      30.01F
LEESBURG*      MOCLDY    63  61  94 CALM      30.03S
MANASSAS*      CLOUDY    63  63 100 CALM      30.01F
GAITHERSBURG*  CLOUDY    63  59  88 CALM      30.06S

$$

MDZ006>007-011-014-160800-
BALTIMORE METRO

CITY           SKY/WX    TMP DP  RH WIND       PRES   REMARKS
BWI AIRPORT    MOCLDY    61  58  90 CALM      30.01F
MD SCIENCE CTR   N/A     66  59  78 MISG      30.02F
MARTIN STATE   CLOUDY    64  63  94 CALM      30.03F
ANNAPOLIS      CLOUDY    66  61  84 S7        30.01F
FORT MEADE*    MOCLDY    55  54  94 CALM      30.04F

$$

MDZ012-015-019>023-160800-
MARYLAND EASTERN SHORE

CITY           SKY/WX    TMP DP  RH WIND       PRES   REMARKS
OCEAN CITY     CLOUDY    62  58  86 CALM      30.04F
SALISBURY        N/A    N/A N/A N/A MISG        N/A
BAY BRIDGE AP*   N/A     68  61  77 S5        30.02F
CAMBRIDGE*     MOCLDY    61  59  94 CALM      30.03S
EASTON*        MOCLDY    62  62 100 CALM      30.07F

$$

MDZ017>025-160800-
SOUTHERN MARYLAND

CITY           SKY/WX    TMP DP  RH WIND       PRES   REMARKS
PATUXENT RIVER CLOUDY    66  62  87 SW6       30.02F
ST INIGOES     CLOUDY    68  61  78 S6        30.03S
LEONARDTOWN*   CLOUDY    64  61  88 SW5       30.04F

$$

MDZ003>005-160800-
NORTH CENTRAL MARYLAND

CITY           SKY/WX    TMP DP  RH WIND       PRES   REMARKS
FREDERICK*     MOCLDY    61  59  94 CALM      30.05S
HAGERSTOWN APT PTCLDY    58  53  84 N3        30.02S
WESTMINSTER*   CLOUDY    61  57  88 SE3       30.02F

$$

MDZ501>502-160800-
WESTERN MARYLAND

CITY           SKY/WX    TMP DP  RH WIND       PRES   REMARKS
OAKLAND*       CLOUDY    54  54 100 W8        30.08F
CUMBERLAND*    PTCLDY    57  54  88 CALM      30.07F

$$

VAZ025>031-160800-
SHENANDOAH VALLEY

CITY           SKY/WX    TMP DP  RH WIND       PRES   REMARKS
WINCHESTER*    MOCLDY    59  55  88 CALM      30.03S
STAUNTON*      MOCLDY    60  57  90 CALM      30.06F FOG

$$

WVZ021-048>050-054>055-160800-
EASTERN WEST VIRGINIA PANHANDLE

CITY           SKY/WX    TMP DP  RH WIND       PRES   REMARKS
MARTINSBURG    MOCLDY    59  54  83 CALM      30.03S
PETERSBURG*    PTCLDY    57  55  93 CALM      30.05S

$$

VAZ036>039-050-160800-
CENTRAL FOOTHILLS

CITY           SKY/WX    TMP DP  RH WIND       PRES   REMARKS
CHARLOTTESVILL CLOUDY    64  62  93 S5        30.02F
ORANGE*        CLOUDY    63  61  94 S3        30.03F

$$

VAZ055>057-160800-
NORTH AND CENTRAL PIEDMONT

CITY           SKY/WX    TMP DP  RH WIND       PRES   REMARKS
FREDERICKSBRG* MOCLDY    67  62  85 S3        30.01F
STAFFORD*      MOCLDY    64  64 100 CALM      30.06F

$$

NCZ024-NYZ072-PAZ021-071-VAZ022-071-160800-
OTHER REGIONAL OBSERVATIONS

CITY           SKY/WX    TMP DP  RH WIND       PRES   REMARKS
NEW YORK CITY  CLOUDY    63  52  67 VRB5      30.07F
PHILADELPHIA   PTCLDY    60  53  77 SE5       30.04F
PITTSBURGH     LGT RAIN  56  56 100 N5        30.05S FOG
ROANOKE        MOCLDY    64  60  87 W5        30.07S
RICHMOND       CLOUDY    67  63  87 S3        30.04S
RALEIGH        CLOUDY    68  65  90 W5        30.07F

$$

ANZ530>537-160800-
MARINE OBSERVATIONS

STATION/POSITION TIME  TEMP    WIND        PRES
                       AIR SEA DIR/SP/G
                 (UTC) (F)     (DEG/KT/KT) (MB)
THOMAS PT LIGHT  0700   68 74  200/ 13/ 14 1017.3F
BALT KEY BRIDGE  0700   65                   N/A
COVE POINT       0700   66                   N/A
LEWISETTA        0700   66                   N/A
SOLOMONS ISLAND  0600      76                N/A

$$





U.S. Dept. of Commerce
NOAA National Weather Service
1325 East West Highway
Silver Spring, MD 20910
E-mail: w-nws.webmaster@noaa.gov
Page last modified: May 16, 2007
NATIONAL WEATHER SERVICE: for Safety, for Work, for Fun - FOR LIFE